Find Starlink 5019

NORAD ID: 55407 Int'l Des: 2023-014 Owner: SPXS Country: US Constellation: starlink operational
LEOCIRCULAR

リアルタイム位置

3D地球を読み込み中...

Starlink 5019について

説明を読み込み中...

次回通過

Passes for default location (London). Set your location on the main map for personalized predictions.

高度履歴

Loading altitude history...

軌道要素

1 55407U 23014S 26121.16585219 -.00001752 00000-0 -13907-3 0 9990
2 55407 69.9983 292.2311 0003063 266.8295 93.2514 14.98331724179910
Epoch: May 1, 2026 • Age: 7 hours

現在のステータス

高度 585.0 km
速度 7.57 km/s
衛星直下点 66.80°N, 31.84°E
打ち上げ日 Jan 31, 2023
運用期間 3.2 years
タイプ internet

技術仕様

分類 Payload
質量 305.00 kg
乾燥質量 290.00 kg
総質量 305.00 kg
長さ 0.20 m
直径 2.80 m
スパン 9.00 m
形状 Box + pan
製造者 SPXS
バスタイプ Starlink
フェーズステータス In Orbit
所有者/国 SPXS/US

Most Searched